Rapid City, SD

9:44 PM MDT on April 24, 2017 (GMT -0600)
Rapid City Regional

Weather History for KRAP - January, 2014

Change the Weather History Date:

Monday, January 13, 2014

  Actual Average Record
Temperature  
Mean Temperature 34 °F 25 °F  
Max Temperature 46 °F 37 °F 62 °F (1983)
Min Temperature 21 °F 13 °F -16 °F (1972)
Degree Days  
Heating Degree Days 31 40  
Month to date heating degree days 525 522  
Since 1 July heating degree days 3668 3438  
Cooling Degree Days 0 0  
Month to date cooling degree days 0 0  
Year to date cooling degree days 0 0  
Moisture  
Dew Point 27 °F    
Average Humidity 73    
Maximum Humidity 92    
Minimum Humidity 53    
Precipitation  
Precipitation 0.03 in 0.01 in 0.14 in (1994)
Month to date precipitation 0.10 0.14  
Year to date precipitation 0.10 0.14  
Snow  
Snow T in 0.20 in 2.80 in (1994)
Month to date snowfall 0.7 1.9  
Since 1 July snowfall 34.1 15.1  
Snow Depth 0.00 in    
Sea Level Pressure  
Sea Level Pressure 29.80 in    
Wind  
Wind Speed 17 mph (WNW)    
Max Wind Speed 52 mph    
Max Gust Speed 68 mph    
Visibility 10 miles    
Events Rain , Snow    
T = Trace of Precipitation, MM = Missing Value Source: NWS Daily Summary

Daily Weather History Graph

Daily Weather History Graph

Search for Another Location

Airport or City:

Trip Planner

Search our weather history database for the weather conditions in past years. The results will help you decide how hot, cold, wet, or windy it might be!

Date:

Astronomy

Jan. 13, 2014 Rise Set
Actual Time 7:24 AM MST 4:37 PM MST
Civil Twilight 6:52 AM MST 5:09 PM MST
Nautical Twilight 6:16 AM MST 5:45 PM MST
Astronomical Twilight 5:42 AM MST 6:20 PM MST
Moon 2:55 PM MST (1/13) 5:14 AM MST (1/13)
Length of Visible Light 10h 17m
Length of Day
9h 12m
Waxing Gibbous, 95% of the Moon is Illuminated
Jan 13
Waxing Gibbous
Jan 15
Full
Jan 23
Last Quarter
Jan 30
New
Feb 6
First Quarter

Hourly Weather History & Observations

Time (MST) Temp. Windchill Dew Point Humidity Pressure Visibility Wind Dir Wind Speed Gust Speed Precip Events Conditions
12:52 AM 25.0 °F 20.7 °F 21.9 °F 88% 29.85 in 10.0 mi SW 3.5 mph - N/A   Mostly Cloudy
1:52 AM 24.1 °F 19.7 °F 21.9 °F 91% 29.85 in 10.0 mi SSE 3.5 mph - N/A   Clear
2:52 AM 21.9 °F 15.7 °F 19.0 °F 89% 29.84 in 10.0 mi West 4.6 mph - N/A   Clear
3:52 AM 23.0 °F - 18.0 °F 81% 29.83 in 10.0 mi Calm Calm - N/A   Mostly Cloudy
4:52 AM 27.0 °F 23.0 °F 21.0 °F 78% 29.81 in 10.0 mi WSW 3.5 mph - N/A   Overcast
5:52 AM 27.0 °F 20.5 °F 21.0 °F 78% 29.78 in 10.0 mi ENE 5.8 mph - N/A   Overcast
6:52 AM 35.1 °F 25.9 °F 24.1 °F 64% 29.76 in 10.0 mi WNW 13.8 mph 18.4 mph N/A   Overcast
7:52 AM 34.0 °F 26.6 °F 27.0 °F 75% 29.78 in 10.0 mi West 9.2 mph - N/A   Overcast
8:52 AM 37.0 °F 31.0 °F 28.0 °F 70% 29.77 in 10.0 mi West 8.1 mph - N/A   Overcast
9:52 AM 37.9 °F 31.5 °F 28.0 °F 68% 29.76 in 10.0 mi WSW 9.2 mph - N/A   Clear
10:52 AM 44.1 °F 36.8 °F 28.0 °F 53% 29.73 in 10.0 mi West 16.1 mph 24.2 mph N/A   Mostly Cloudy
11:52 AM 44.1 °F 35.4 °F 28.0 °F 53% 29.72 in 10.0 mi WNW 21.9 mph 28.8 mph N/A   Overcast
12:52 PM 43.0 °F 34.2 °F 32.0 °F 65% 29.73 in 10.0 mi WNW 20.7 mph 29.9 mph 0.00 in Rain Light Rain
1:52 PM 43.0 °F 35.7 °F 33.1 °F 68% 29.74 in 10.0 mi West 15.0 mph - 0.00 in Rain Light Rain
2:52 PM 39.9 °F 32.5 °F 35.1 °F 83% 29.76 in 10.0 mi West 12.7 mph - 0.01 in Rain Light Rain
3:52 PM 39.9 °F 33.4 °F 35.1 °F 83% 29.74 in 10.0 mi SW 10.4 mph - 0.00 in   Overcast
4:52 PM 43.0 °F 36.4 °F 32.0 °F 65% 29.71 in 10.0 mi West 12.7 mph - N/A   Overcast
5:52 PM 41.0 °F 30.7 °F 32.0 °F 70% 29.77 in 10.0 mi NNW 25.3 mph 33.4 mph 0.00 in   Overcast
6:52 PM 39.0 °F 26.8 °F 34.0 °F 82% 29.76 in 8.0 mi WNW 32.2 mph 54.1 mph 0.00 in Rain Light Rain
7:52 PM 39.0 °F 27.4 °F 30.9 °F 73% 29.78 in 10.0 mi NW 28.8 mph 35.7 mph 0.02 in   Partly Cloudy
8:52 PM 37.0 °F 23.0 °F 28.0 °F 70% 29.85 in 10.0 mi NNW 39.1 mph 51.8 mph N/A   Partly Cloudy
9:52 PM 34.0 °F 18.9 °F 28.9 °F 82% 29.91 in 9.0 mi NNW 38.0 mph 44.9 mph 0.00 in Snow Light Snow
10:52 PM 34.0 °F 19.1 °F 25.0 °F 70% 29.98 in 10.0 mi NNW 36.8 mph 50.6 mph 0.00 in   Overcast
11:52 PM 32.0 °F 16.7 °F 26.1 °F 79% 30.02 in 8.0 mi NW 34.5 mph 43.7 mph 0.00 in Snow Light Snow